Kingstree, SC

12:20 AM EST on December 13, 2019 (GMT -0500)
Williamsburg County

Weather History for KCKI - October, 2019

Change the Weather History Date:

Tuesday, October 22, 2019

  Actual Average Record
Temperature  
Mean Temperature 73 °F -  
Max Temperature 84 °F 75 °F 80 °F (2015)
Min Temperature 60 °F 45 °F 33 °F (2018)
Cooling Degree Days 8    
Growing Degree Days 23 (Base 50)    
Moisture  
Dew Point 65 °F    
Average Humidity 80    
Maximum Humidity 100    
Minimum Humidity 43    
Precipitation  
Precipitation 0.00 in - - ()
Sea Level Pressure  
Sea Level Pressure 29.91 in    
Wind  
Wind Speed 3 mph ()    
Max Wind Speed 13 mph    
Max Gust Speed 21 mph    
Visibility 8.9 miles    
Events      
Averages and records for this station are not official NWS values.
T = Trace of Precipitation, MM = Missing Value Source: Averaged Metar Reports

Daily Weather History Graph

Daily Weather History Graph

Search for Another Location

Airport or City:

Astronomy

Oct. 22, 2019 Rise Set
Actual Time 7:29 AM EDT 6:37 PM EDT
Civil Twilight 7:04 AM EDT 7:02 PM EDT
Nautical Twilight 6:35 AM EDT 7:31 PM EDT
Astronomical Twilight 6:06 AM EDT 8:00 PM EDT
Moon 1:01 AM EDT (10/22) 3:23 PM EDT (10/22)
Length of Visible Light 11h 58m
Length of Day
11h 07m
Last Quarter, 37% of the Moon is Illuminated
Oct 22
Last Quarter
Oct 27
New
Nov 4
First Quarter
Nov 12
Full
Nov 19
Last Quarter

Hourly Weather History & Observations

Time (EDT) Temp. Heat Index Dew Point Humidity Pressure Visibility Wind Dir Wind Speed Gust Speed Precip Events Conditions
12:15 AM 64.4 °F - 64.4 °F 100% 30.03 in 10.0 mi Calm Calm - N/A   Overcast
12:35 AM 64.4 °F - 64.4 °F 100% 30.02 in 10.0 mi East 3.5 mph - N/A   Overcast
12:55 AM 64.4 °F - 64.4 °F 100% 30.02 in 10.0 mi Calm Calm - N/A   Overcast
1:15 AM 66.2 °F - 64.4 °F 94% 30.02 in 10.0 mi Calm Calm - N/A   Overcast
1:55 AM 66.2 °F - 64.4 °F 94% 30.01 in 10.0 mi Calm Calm - N/A   Overcast
2:15 AM 66.2 °F - 64.4 °F 94% 30.01 in 10.0 mi East 3.5 mph - N/A   Overcast
2:35 AM 68.0 °F - 64.4 °F 88% 30.00 in 10.0 mi Calm Calm - N/A   Overcast
2:55 AM 68.0 °F - 64.4 °F 88% 29.99 in 10.0 mi Calm Calm - N/A   Overcast
3:15 AM 68.0 °F - 64.4 °F 88% 29.98 in 10.0 mi Calm Calm - N/A   Overcast
3:35 AM 68.0 °F - 64.4 °F 88% 29.97 in 10.0 mi Calm Calm - N/A   Overcast
3:55 AM 68.0 °F - 66.2 °F 94% 29.97 in 10.0 mi Calm Calm - N/A   Overcast
4:15 AM 68.0 °F - 64.4 °F 88% 29.94 in 10.0 mi East 4.6 mph - N/A   Mostly Cloudy
4:35 AM 68.0 °F - 64.4 °F 88% 29.94 in 10.0 mi East 5.8 mph - N/A   Scattered Clouds
4:55 AM 68.0 °F - 66.2 °F 94% 29.94 in 10.0 mi East 4.6 mph - N/A   Scattered Clouds
5:15 AM 68.0 °F - 66.2 °F 94% 29.93 in 10.0 mi East 4.6 mph - N/A   Mostly Cloudy
5:35 AM 68.0 °F - 66.2 °F 94% 29.92 in 10.0 mi East 5.8 mph - N/A   Overcast
5:55 AM 68.0 °F - 68.0 °F 100% 29.91 in 10.0 mi East 8.1 mph - N/A   Overcast
6:15 AM 69.8 °F - 68.0 °F 94% 29.92 in 10.0 mi East 5.8 mph - N/A   Overcast
6:35 AM 69.8 °F - 68.0 °F 94% 29.91 in 10.0 mi East 3.5 mph - N/A   Overcast
6:55 AM 69.8 °F - 68.0 °F 94% 29.91 in 10.0 mi East 3.5 mph - N/A   Overcast
7:15 AM 68.0 °F - 68.0 °F 100% 29.91 in 10.0 mi Calm Calm - N/A   Overcast
7:35 AM 68.0 °F - 68.0 °F 100% 29.91 in 10.0 mi Calm Calm - N/A   Overcast
7:55 AM 69.8 °F - 68.0 °F 94% 29.91 in 10.0 mi Calm Calm - N/A   Overcast
8:15 AM 69.8 °F - 68.0 °F 94% 29.91 in 7.0 mi Calm Calm - N/A   Overcast
8:35 AM 69.8 °F - 68.0 °F 94% 29.92 in 7.0 mi Calm Calm - N/A   Overcast
8:55 AM 69.8 °F - 69.8 °F 100% 29.93 in 7.0 mi Calm Calm - N/A   Overcast
9:15 AM 71.6 °F - 69.8 °F 94% 29.93 in 7.0 mi Calm Calm - N/A   Overcast
9:35 AM 71.6 °F - 69.8 °F 94% 29.93 in 7.0 mi Calm Calm - N/A   Overcast
9:55 AM 71.6 °F - 69.8 °F 94% 29.93 in 7.0 mi Calm Calm - N/A   Overcast
10:15 AM 71.6 °F - 71.6 °F 100% 29.93 in 5.0 mi SSE 3.5 mph - N/A   Overcast
10:35 AM 73.4 °F - 71.6 °F 94% 29.93 in 7.0 mi SSE 3.5 mph - N/A   Overcast
10:55 AM 77.0 °F - 73.4 °F 89% 29.92 in 10.0 mi SSE 6.9 mph - N/A   Overcast
11:15 AM 77.0 °F - 73.4 °F 89% 29.92 in 7.0 mi Calm Calm - N/A   Overcast
11:35 AM 77.0 °F - 75.2 °F 94% 29.91 in 10.0 mi SSE 6.9 mph - N/A   Overcast
11:55 AM 77.0 °F - 73.4 °F 89% 29.89 in 10.0 mi South 5.8 mph - N/A   Overcast
12:15 PM 78.8 °F - 73.4 °F 83% 29.89 in 7.0 mi SSW 5.8 mph - N/A   Overcast
12:55 PM 78.8 °F - 73.4 °F 83% 29.88 in 7.0 mi SW 6.9 mph - N/A   Overcast
1:15 PM 78.8 °F - 73.4 °F 83% 29.87 in 10.0 mi SW 8.1 mph - N/A   Overcast
1:35 PM 80.6 °F 85.4 °F 73.4 °F 79% 29.86 in 7.0 mi SSW 6.9 mph - N/A   Overcast
2:35 PM 80.6 °F 83.9 °F 69.8 °F 70% 29.83 in 7.0 mi SSW 5.8 mph - N/A   Mostly Cloudy
3:15 PM 82.4 °F 85.4 °F 68.0 °F 62% 29.82 in 7.0 mi South 6.9 mph - N/A   Mostly Cloudy
3:35 PM 84.2 °F 88.4 °F 69.8 °F 62% 29.82 in 7.0 mi SSW 9.2 mph - N/A   Mostly Cloudy
3:55 PM 82.4 °F 85.4 °F 68.0 °F 62% 29.82 in 10.0 mi SSW 5.8 mph 18.4 mph N/A   Mostly Cloudy
4:15 PM 80.6 °F 83.9 °F 69.8 °F 70% 29.83 in 7.0 mi SW 9.2 mph - N/A   Overcast
4:35 PM 80.6 °F 83.2 °F 68.0 °F 65% 29.83 in 10.0 mi WSW 8.1 mph 16.1 mph N/A   Scattered Clouds
4:55 PM 80.6 °F 82.7 °F 66.2 °F 61% 29.83 in 10.0 mi WSW 12.7 mph 20.7 mph N/A   Scattered Clouds
5:15 PM 80.6 °F 82.7 °F 66.2 °F 61% 29.84 in 10.0 mi WSW 11.5 mph 19.6 mph N/A   Scattered Clouds
5:35 PM 80.6 °F 83.2 °F 68.0 °F 65% 29.84 in 7.0 mi WSW 11.5 mph 17.3 mph N/A   Scattered Clouds
5:55 PM 78.8 °F - 66.2 °F 65% 29.84 in 10.0 mi WSW 6.9 mph - N/A   Clear
6:15 PM 77.0 °F - 68.0 °F 74% 29.84 in 10.0 mi WSW 3.5 mph - N/A   Clear
6:35 PM 75.2 °F - 68.0 °F 78% 29.84 in 4.0 mi WSW 3.5 mph - N/A   Haze
6:55 PM 73.4 °F - 68.0 °F 83% 29.86 in 10.0 mi West 3.5 mph - N/A   Clear
7:15 PM 73.4 °F - 60.8 °F 65% 29.87 in 10.0 mi WSW 6.9 mph - N/A   Clear
7:35 PM 73.4 °F - 60.8 °F 65% 29.88 in 7.0 mi West 5.8 mph - N/A   Clear
7:55 PM 73.4 °F - 50.0 °F 44% 29.89 in 10.0 mi WSW 8.1 mph - N/A   Clear
8:15 PM 71.6 °F - 48.2 °F 43% 29.91 in 7.0 mi WSW 5.8 mph - N/A   Clear
8:35 PM 69.8 °F - 46.4 °F 43% 29.91 in 7.0 mi Calm Calm - N/A   Clear
8:55 PM 68.0 °F - 46.4 °F 46% 29.91 in 10.0 mi Calm Calm - N/A   Clear
9:35 PM 62.6 °F - 48.2 °F 59% 29.93 in 10.0 mi WSW 4.6 mph - N/A   Clear
9:55 PM 62.6 °F - 46.4 °F 55% 29.94 in 10.0 mi WSW 4.6 mph - N/A   Clear
10:15 PM 64.4 °F - 44.6 °F 49% 29.95 in 10.0 mi WSW 5.8 mph - N/A   Clear
10:35 PM 62.6 °F - 44.6 °F 52% 29.96 in 10.0 mi West 5.8 mph - N/A   Clear
10:55 PM 62.6 °F - 44.6 °F 52% 29.97 in 10.0 mi West 4.6 mph - N/A   Clear
11:15 PM 60.8 °F - 44.6 °F 55% 29.97 in 10.0 mi WSW 3.5 mph - N/A   Clear